DW9755 Weather Reports


time (UTC)temp
C
wind
direction
speed
KPH
gust
KPH
rain 1hr
cm
rain 24hr
cm
rain mn
cm
humidity
%
barometer
mb
20260505224245 21 101 8.0 11.3 0.00 0.00 0.00 66 1014.9
20260505223243 21 44 4.8 8.0 0.00 0.00 0.00 66 1015.0
20260505222242 20 103 3.2 9.7 0.00 0.00 0.00 68 1015.2
20260505220240 19 71 0.0 11.3 0.00 0.00 0.00 68 1015.4
20260505214238 18 48 4.8 8.0 0.00 0.00 0.00 70 1015.4
20260505213238 18 358 0.0 9.7 0.00 0.00 0.00 69 1015.5
20260505212237 18 10 4.8 8.0 0.00 0.00 0.00 68 1015.5
20260505204233 17 23 1.6 6.4 0.00 0.00 0.00 71 1015.7
20260505203231 16 44 0.0 6.4 0.00 0.00 0.00 71 1015.8
20260505202230 17 61 0.0 6.4 0.00 0.00 0.00 73 1015.8
20260505195227 16 39 0.0 8.0 0.00 0.00 0.00 72 1015.9
20260505194227 16 291 0.0 6.4 0.00 0.00 0.00 74 1015.9
20260505193225 16 286 4.8 8.0 0.00 0.00 0.00 75 1016.0
20260505192224 15 283 0.0 4.8 0.00 0.00 0.00 75 1016.0
20260505191223 15 298 0.0 6.4 0.00 0.00 0.00 75 1016.0
20260505185222 15 296 4.8 6.4 0.00 0.00 0.00 76 1015.9
20260505184221 15 286 6.4 6.4 0.00 0.00 0.00 76 1015.9
20260505183219 15 310 0.0 6.4 0.00 0.00 0.00 76 1015.9
20260505182219 15 316 3.2 8.0 0.00 0.00 0.00 76 1015.8
20260505180217 15 292 1.6 11.3 0.00 0.00 0.00 77 1015.7
20260505175217 15 273 0.0 8.0 0.00 0.00 0.00 77 1015.7
20260505172212 14 247 0.0 8.0 0.00 0.00 0.00 77 1015.6
20260505171211 14 230 3.2 11.3 0.00 0.00 0.00 78 1015.6
20260505170211 14 264 3.2 6.4 0.00 0.00 0.00 79 1015.5
20260505165210 14 264 1.6 6.4 0.00 0.00 0.00 78 1015.5
20260505164209 14 264 0.0 4.8 0.00 0.00 0.00 79 1015.5
20260505163208 13 261 0.0 6.4 0.00 0.00 0.00 79 1015.6
20260505162207 13 277 3.2 6.4 0.00 0.00 0.00 79 1015.6
20260505161206 13 277 0.0 6.4 0.00 0.00 0.00 80 1015.6
20260505160205 13 278 0.0 4.8 0.00 0.00 0.00 81 1015.6
20260505152202 13 274 6.4 8.0 0.00 0.00 0.00 82 1015.5
20260505151200 13 262 1.6 6.4 0.00 0.00 0.00 83 1015.5
20260505130147 12 327 1.6 6.4 0.00 0.00 0.00 84 1014.9
20260505124146 12 291 8.0 11.3 0.00 0.00 0.00 84 1014.7
20260505123144 12 317 4.8 11.3 0.00 0.00 0.00 84 1014.5
20260505115141 12 313 0.0 9.7 0.00 0.00 0.00 85 1014.4
20260505114140 12 327 3.2 6.4 0.00 0.00 0.00 85 1014.4
20260505113138 12 324 3.2 8.0 0.00 0.00 0.00 86 1014.5
20260505112137 12 323 3.2 3.2 0.00 0.00 0.00 86 1014.4
20260505111136 12 323 0.0 0.0 0.00 0.00 0.00 86 1014.5
20260505102131 12 323 0.0 0.0 0.00 0.00 0.00 87 1014.2
20260505101130 12 323 0.0 8.0 0.00 0.00 0.00 87 1014.1
20260505100130 12 319 0.0 8.0 0.00 0.00 0.00 87 1014.2
20260505095130 12 298 3.2 12.9 0.00 0.00 0.00 86 1014.2
20260505093127 12 320 3.2 14.5 0.00 0.00 0.00 86 1014.1
20260505092127 12 281 3.2 8.0 0.00 0.00 0.00 86 1014.1
20260505090123 12 314 4.8 9.7 0.00 0.00 0.00 86 1014.1
20260505085123 12 307 1.6 11.3 0.00 0.00 0.00 85 1014.1
20260505084122 12 283 3.2 8.0 0.00 0.00 0.00 85 1014.1
20260505083120 12 287 0.0 6.4 0.00 0.00 0.00 85 1014.1
20260505081119 12 293 4.8 11.3 0.00 0.00 0.00 85 1014.2
20260505080118 12 317 9.7 12.9 0.00 0.00 0.00 85 1014.2
20260505075118 12 283 3.2 11.3 0.00 0.00 0.00 85 1014.2
20260505073114 12 320 6.4 11.3 0.00 0.00 0.00 85 1014.3
20260505072115 12 296 3.2 17.7 0.00 0.00 0.00 84 1014.2
20260505070112 12 305 4.8 12.9 0.00 0.00 0.00 84 1014.0
20260505062109 12 318 9.7 12.9 0.00 0.00 0.00 84 1013.9
20260505060106 12 308 12.9 16.1 0.00 0.00 0.00 83 1014.0
20260505055105 12 286 6.4 14.5 0.00 0.00 0.00 83 1013.9
20260505053103 12 298 4.8 19.3 0.00 0.00 0.00 83 1013.9
20260505051101 12 287 11.3 17.7 0.00 0.00 0.00 83 1013.8
20260505040054 13 279 6.4 17.7 0.00 0.00 0.00 83 1013.0
20260505035054 13 304 9.7 14.5 0.00 0.00 0.00 82 1012.9
20260505034052 13 302 4.8 16.1 0.00 0.00 0.00 82 1012.8
20260505033052 13 275 6.4 19.3 0.00 0.00 0.00 81 1012.7
20260505031050 14 319 6.4 17.7 0.00 0.00 0.00 79 1012.3
20260505030049 14 283 8.0 20.9 0.00 0.00 0.00 78 1012.2
20260505025047 15 295 4.8 19.3 0.00 0.00 0.00 77 1012.0
20260505023046 15 267 4.8 19.3 0.00 0.00 0.00 76 1011.7
20260505022045 16 270 12.9 22.5 0.00 0.00 0.00 74 1011.6
20260505021043 16 260 6.4 22.5 0.00 0.00 0.00 74 1011.6
20260505020043 16 310 14.5 20.9 0.00 0.00 0.00 74 1011.6
20260505015041 16 309 6.4 24.1 0.00 0.00 0.00 73 1011.6
20260505014040 17 297 14.5 22.5 0.00 0.00 0.00 74 1011.6
20260505013039 17 275 14.5 22.5 0.00 0.00 0.00 73 1011.6
20260505012039 17 308 16.1 24.1 0.00 0.00 0.00 72 1011.6
20260505011037 17 316 12.9 24.1 0.00 0.00 0.00 72 1011.6
20260505010037 17 313 16.1 29.0 0.00 0.00 0.00 72 1011.6
20260505005035 18 306 14.5 27.4 0.00 0.00 0.00 70 1011.7
20260505004035 18 328 12.9 24.1 0.00 0.00 0.00 68 1011.7
20260505003035 18 298 11.3 27.4 0.00 0.00 0.00 68 1011.6
20260505002033 20 331 11.3 22.5 0.00 0.00 0.00 67 1011.6
20260505001031 20 298 17.7 24.1 0.00 0.00 0.00 66 1011.6
20260505000030 20 322 14.5 22.5 0.00 0.00 0.00 66 1011.6
20260504235029 20 319 4.8 19.3 0.00 0.00 0.00 65 1011.7
20260504234029 20 296 16.1 19.3 0.00 0.00 0.00 68 1011.7
20260504232028 20 287 12.9 24.1 0.00 0.00 0.00 67 1011.8
20260504225024 20 285 19.3 24.1 0.00 0.00 0.00 65 1012.1